Regional Weather Roundup
Issued by NWS Upton, NY

Current Version | Previous Version | Text Only | Print | Product List | Glossary On
Versions: 1 2 3 4 5 6 7 8 9 10 11 12 13 14 15 16 17 18 19 20 21 22 23 24 25 26 27 28 29 30 31 32 33 34 35 36 37 38 39 40 41 42 43 44 45 46 47 48 49 50
000
ASUS41 KOKX 281108
RWROKX

REGIONAL WEATHER ROUNDUP
NATIONAL WEATHER SERVICE NEW YORK NY
700 AM EDT WED SEP 28 2016

NOTE: "FAIR" INDICATES FEW OR NO CLOUDS BELOW 12,000 FEET WITH NO
SIGNIFICANT WEATHER AND/OR OBSTRUCTIONS TO VISIBILITY.

NYZ071-072-176-178-NJZ106-104-281200-
NEW YORK CITY METRO AREA

CITY           SKY/WX    TMP DP  RH WIND       PRES   REMARKS
Central Park   PTCLDY    61  56  83 NE3       30.08R
LaGuardia APRT PTCLDY    64  60  87 NE8       30.04R
Kennedy INTL   PTCLDY    61  59  93 NE8       30.05R FOG
Newark/Liberty PTCLDY    57  53  86 N9        30.05R
Bronx Bot Gard   N/A     55  54  94 NW2       30.08R
Wall St Helipt MOSUNNY   66  63  88 NE10      30.05R
Teterboro      PTCLDY    55  51  86 N3        30.05R
$$

NYZ177-179-078>081-281200-
LONG ISLAND NEW YORK

CITY           SKY/WX    TMP DP  RH WIND       PRES   REMARKS
Farmingdale    FOG       62  61  96 NE7       30.05R VSB 3/4
MacArthur/ISP  MOCLDY    62  61  96 NE10      30.05R FOG
Shirley        NOT AVBL
Riverhead      NOT AVBL
Westhampton    PTCLDY    63  60  90 NE8       30.07R
Southampton      N/A    N/A N/A N/A NE3       30.02R
Bridgehampton    N/A    N/A N/A N/A E2        29.92R
East Hampton   CLOUDY    63  60  91 NE13G18   30.07R
Montauk          N/A     64  60  87 NE13G21   30.09R
$$

NYZ052-065-067-281200-
HUDSON VALLEY

CITY           SKY/WX    TMP DP  RH WIND       PRES   REMARKS
White Plains   CLEAR     59  55  87 NE7       30.06R
Newburgh       FOG       50  50 100 CALM      30.09R VSB 1/2
Montgomery     FOG       44  43  96 CALM      30.08R VSB 1
Poughkeepsie   FOG       46  45  96 CALM      30.08R VSB 1/4
Albany         PTCLDY    49  48  97 CALM      30.11R FOG
$$

NJZ001-105-106-008-010-013-015-019>022-104-281200-
NEW JERSEY

CITY           SKY/WX    TMP DP  RH WIND       PRES   REMARKS
Newark/Liberty PTCLDY    57  53  86 N9        30.05R
Teterboro      PTCLDY    55  51  86 N3        30.05R
Caldwell       CLEAR     50  49  96 CALM      30.06R
Morristown     PTCLDY    43  43 100 CALM      30.06R
Somerville     CLOUDY    47  45  93 CALM      30.03R
Linden         NOT AVBL
Sussex         MOCLDY    41  41 100 CALM      30.08R FOG
Abdover          N/A     47  46  97 CALM      30.07R
Trenton        CLOUDY    52  49  89 N5        30.03R
Millville      PTCLDY    59  59 100 NE6       30.00R FOG
Atlantic City  PTCLDY    57  55  93 N3        30.00S FOG
Wrightstown    CLEAR     52  52  99 NE3       30.00R
Toms River     CLEAR     54  53  97 N6        30.03R
Belmar         CLEAR     59  58  96 N5        30.04R FOG
$$

PAZ047>061-062-071-281200-
EASTERN PENNSYLVANIA

CITY           SKY/WX    TMP DP  RH WIND       PRES   REMARKS
Philadelphia   MOCLDY    59  57  93 NE8       30.02R
Allentown      CLEAR     46  43  89 CALM      30.05R
Scranton       CLEAR     51  45  79 E7        30.05S
$$

CTZ002-004>006-009-010-012-RIZ004-006-007-MAZ004-011-015-281200-
SOUTHERN NEW ENGLAND
 IN CT

CITY           SKY/WX    TMP DP  RH WIND       PRES   REMARKS
Bradley INTL   CLOUDY    56  54  93 N6        30.11R
Hartford       CLOUDY    57  56  96 N5        30.11R
Danbury        FOG       52  52 100 E3        30.09R VSB 1/4
Wtrbury/Oxford FOG       55  54  94 E12       30.10R VSB 1/2
Bridgeport     CLOUDY    61  58  90 NE10      30.07R FOG
Meriden        CLOUDY    60  56  86 NE3       30.10R
New Haven      CLOUDY    60  59  96 NE10      30.09R
Chester        CLOUDY    59  59 100 NE5       30.10R FOG
Groton         PTCLDY    63  58  83 NE13      30.08R
Wilimantic     CLOUDY    61  59  93 NE9       30.12R

 IN RI

CITY           SKY/WX    TMP DP  RH WIND       PRES   REMARKS
Providence     CLOUDY    60  57  89 NE14      30.12R
Block Island   CLOUDY    63  60  90 NE12G21   30.08R
Westerly       CLOUDY    62  57  83 N7        30.09R
 IN MA

CITY           SKY/WX    TMP DP  RH WIND       PRES   REMARKS
Boston         CLOUDY    58  53  84 NE14G24   30.16R
Worcester      CLOUDY    55  54  96 NE8       30.15R
Westfield      MOCLDY    55  55 100 N6        30.12R
Provincetown   CLOUDY    60  54  80 NE14G24   30.14R
Nantucket      CLOUDY    62  60  93 NE13      30.08R
$$

ANZ330-335-338-340-345-350-353-355-281200-
COASTAL MARINE OBSERVATIONS


STATION/POSITION TIME  SKY/WX   TEMP    WIND        PRES    VSBY  WAVE
                                AIR SEA DIR/SP/G                  HT/PER
                 (UTC)          (F)     (DEG/KT/KT) (MB)    (MI)  (FT/S)
NY HARB ENTRANCE 0950            68 71   50/ 14/ 16 1016.0          3/ 6
20S FIRE ISLAND  0950            69 69   50/ 14/ 16 1015.6          3/11
GREAT SOUTH BAY  1015            64 69   40/ 12/ 16   N/A
23 SSW MONTAUK P 0950            67 68   50/ 16/ 17 1017.1          4/ 7
15 E BARNEGAT LI 1030               71                N/A           3/12
HUDSON CANYON    0950            68 69              1015.3          4/11
KINGS POINT      1036            63 72              1017.2
EXECUTION ROCKS  1045            65      40/ 12/ 14   N/A
CENTRAL LI SOUND 1015            63 72   80/ 16/ 21   N/A           2/ 3
EASTERN LI SOUND NOT AVBL
ROBBINS REEF     1036            61     350/  4/  5 1017.4
$$


>>>>>>>>>>>>>>>>>>>>>>>>>>>> KEY <<<<<<<<<<<<<<<<<<<<<<<<<<<
>                                                          <
>     SKY/WX - Sky Condition/Present Weather               <
>     TMP    - Temperature in Fahrenheit                   <
>     DP     - Dew Point in Fahrenheit                     <
>     RH     - Relative Humidity in Percent                <
>     WIND   - Direction (from) and Speed in MPH           <
>     PRES   - Mean Sea Level Pressure (inches of Hg)      <
>     WCI    - Wind Chill Index                            <
>     VSB    - VISIBILITY IN MILES                         <
>     HX     - HEAT INDEX                                  <
>     TC     - TEMPERATURE IN CELSIUS                      <
>     VRB    - VARIABLE WIND DIRECTION                     <
>                                                          <
>>>>>>>>>>>>>>>>>>>>>>>>>>>> KEY <<<<<<<<<<<<<<<<<<<<<<<<<<<




USA.gov is the U.S. government's official web portal to all federal, state and local government web resources and services.